Location: Black Forest
(43.4794°N, 75.0081°W)
Time: 16:14:39
(UTC-05:00)

ISS - All Passes

Search period start: 20 November 2017 00:00
Search period end: 30 November 2017 00:00
Orbit: 402 x 407 km, 51.6° (Epoch: 21 November)

Date Brightness Start Highest point End Pass type
(mag) Time Alt. Az. Time Alt. Az. Time Alt. Az.
20 Nov - 00:41:51 10° NW 00:44:18 19° N 00:46:44 10° NE night (unlit)
20 Nov - 02:18:29 10° NW 02:21:28 31° NNE 02:24:26 10° E night (unlit)
20 Nov - 03:54:54 10° WNW 03:58:03 47° SW 04:01:12 10° SE visible
20 Nov - 20:35:36 10° SSW 20:38:23 26° SE 20:41:12 10° ENE night (unlit)
20 Nov - 22:11:35 10° W 22:14:44 45° NNW 22:17:54 10° NE night (unlit)
20 Nov - 23:49:17 10° NW 23:51:47 20° N 23:54:18 10° NE night (unlit)
21 Nov - 01:26:17 10° NW 01:29:03 24° NNE 01:31:47 10° ENE night (unlit)
21 Nov - 03:02:34 10° WNW 03:05:51 88° SSW 03:09:05 10° SE night (unlit)
21 Nov - 04:40:42 10° WSW 04:41:50 11° SW 04:42:58 10° SSW visible
21 Nov - 19:44:25 10° SSE 19:46:19 15° SE 19:48:13 10° E night (unlit)
21 Nov - 21:19:09 10° WSW 21:22:25 75° NNW 21:25:42 10° NE night (unlit)
21 Nov - 22:56:37 10° WNW 22:59:18 23° NNW 23:01:58 10° NE night (unlit)
22 Nov - 00:33:59 10° NW 00:36:33 21° N 00:39:06 10° ENE night (unlit)
22 Nov - 02:10:19 10° NW 02:13:33 54° NNE 02:16:45 10° ESE night (unlit)
22 Nov - 03:47:16 10° W 03:49:47 21° SW 03:52:19 10° S night (unlit)
22 Nov - 20:26:56 10° SW 20:30:09 61° SE 20:33:24 10° ENE night (unlit)
22 Nov - 22:03:55 10° W 22:06:49 28° NNW 22:09:43 10° NE night (unlit)
22 Nov - 23:41:34 10° NW 23:44:02 19° N 23:46:28 10° NE night (unlit)
23 Nov - 01:18:06 10° NW 01:21:10 35° NNE 01:24:12 10° E night (unlit)
23 Nov - 02:54:35 10° WNW 02:57:39 38° SW 03:00:42 10° SSE night (unlit)
23 Nov - 19:34:58 10° SSW 19:37:57 32° SE 19:40:55 10° ENE night (unlit)
23 Nov - 21:11:16 10° W 21:14:23 39° NNW 21:17:29 10° NE night (unlit)
23 Nov - 22:49:00 10° NW 22:51:29 19° N 22:53:57 10° NE night (unlit)
24 Nov - 00:25:53 10° NW 00:28:42 26° NNE 00:31:32 10° ENE night (unlit)
24 Nov - 02:02:10 10° WNW 02:05:26 72° SW 02:08:41 10° SE night (unlit)
24 Nov - 18:43:30 10° S 18:45:49 18° SE 18:48:08 10° E visible
24 Nov - 20:18:45 10° WSW 20:22:00 62° NNW 20:25:15 10° NE night (unlit)
24 Nov - 21:56:20 10° WNW 21:58:56 21° N 22:01:33 10° NE night (unlit)
24 Nov - 23:33:34 10° NW 23:36:11 22° N 23:38:49 10° ENE night (unlit)
25 Nov - 01:09:52 10° NW 01:13:07 65° NNE 01:16:21 10° ESE night (unlit)
25 Nov - 02:47:04 10° W 02:49:17 17° SW 02:51:29 10° S night (unlit)
25 Nov - 19:26:24 10° SW 19:29:40 76° SE 19:32:56 10° ENE visible
25 Nov - 21:03:35 10° WNW 21:06:24 26° NNW 21:09:14 10° NE night (unlit)
25 Nov - 22:41:09 10° NW 22:43:38 19° N 22:46:07 10° NE night (unlit)
26 Nov - 00:17:36 10° NW 00:20:44 40° NNE 00:23:50 10° E night (unlit)
26 Nov - 01:54:13 10° WNW 01:57:08 30° SW 02:00:03 10° SSE night (unlit)
26 Nov - 18:34:18 10° SSW 18:37:24 40° SE 18:40:30 10° ENE visible
26 Nov - 20:10:52 10° W 20:13:55 34° NNW 20:16:58 10° NE night (unlit)
26 Nov - 21:48:36 10° NW 21:51:04 19° N 21:53:31 10° NE night (unlit)
26 Nov - 23:25:20 10° NW 23:28:16 29° NNE 23:31:10 10° E night (unlit)
27 Nov - 01:01:40 10° WNW 01:04:54 57° SW 01:08:06 10° SE night (unlit)
27 Nov - 17:42:36 10° S 17:45:12 22° SE 17:47:48 10° E visible
27 Nov - 19:18:15 10° WSW 19:21:28 52° NNW 19:24:42 10° NE visible
27 Nov - 20:55:54 10° WNW 20:58:28 20° N 21:01:02 10° NE night (unlit)
27 Nov - 22:33:01 10° NW 22:35:43 23° NNE 22:38:24 10° ENE night (unlit)
28 Nov - 00:09:18 10° NW 00:12:35 78° NNE 00:15:51 10° ESE night (unlit)
28 Nov - 01:46:53 10° W 01:48:39 14° SW 01:50:24 10° SSW night (unlit)
28 Nov - 16:51:41 10° SSE 16:53:04 12° SE 16:54:26 10° ESE daylight
28 Nov - 18:25:48 10° WSW 18:29:04 88° NW 18:32:22 10° ENE visible
28 Nov - 20:03:08 10° WNW 20:05:53 24° NNW 20:08:38 10° NE visible
28 Nov - 21:40:37 10° NW 21:43:08 20° N 21:45:39 10° ENE night (unlit)
28 Nov - 23:16:59 10° NW 23:20:10 47° NNE 23:23:20 10° ESE night (unlit)
29 Nov - 00:53:45 10° W 00:56:29 25° SW 00:59:13 10° SSE night (unlit)
29 Nov - 17:33:34 10° SW 17:36:44 50° SE 17:39:56 10° ENE visible
29 Nov - 19:10:22 10° W 19:13:21 31° NNW 19:16:19 10° NE visible
29 Nov - 20:48:04 10° NW 20:50:30 19° N 20:52:58 10° NE night (unlit)
29 Nov - 22:24:41 10° NW 22:27:41 32° NNE 22:30:40 10° E night (unlit)
